Waarnemingen

Advertentie
Mijn weer
Stornoway, Groot Brittannië (3026): temperatuur & dauwpunt: 21.01.2021 13:00:00 - 27.01.2021 13:00:00 (GMT)Stornoway, Groot Brittannië (3026): temperatuur -20cm & temperatuur -100cm: 21.01.2021 13:00:00 - 27.01.2021 13:00:00 (GMT)Stornoway, Groot Brittannië (3026): windsnelheid & windstoten: 21.01.2021 13:00:00 - 27.01.2021 13:00:00 (GMT)Stornoway, Groot Brittannië (3026): windrichting: 21.01.2021 13:00:00 - 27.01.2021 13:00:00 (GMT)Stornoway, Groot Brittannië (3026): luchtdruk: 21.01.2021 13:00:00 - 27.01.2021 13:00:00 (GMT)Stornoway, Groot Brittannië (3026): zicht: 21.01.2021 13:00:00 - 27.01.2021 13:00:00 (GMT)Stornoway, Groot Brittannië (3026): Zonneschijnduur: 21.01.2021 13:00:00 - 27.01.2021 13:00:00 (GMT)Stornoway, Groot Brittannië (3026): neerslag: 21.01.2021 13:00:00 - 27.01.2021 13:00:00 (GMT)
Datum & Tijd tt [°C] td [°C] tt -20cm [°C] tt -100cm [°C] ff [km/u] ff [kn] fx [km/u] fx [kn] dd ppp [hPa] vv [km] sd [min] rr [mm]
27.01.2021 13:00:00 5,0 -1,2 - - 24 13 - - ONO 1012,2 60 30 0,0
27.01.2021 12:00:00 4,8 -0,2 - - 28 15 - - NO 1011,8 75 0 0,0
27.01.2021 11:00:00 5,0 0,3 - - 29 16 - - ONO 1011,3 60 0 0,0
27.01.2021 10:00:00 4,4 0,9 - - 29 16 - - NO 1010,8 35 0 0,0
27.01.2021 09:00:00 4,9 0,2 2,9 4,7 29 16 - - ONO 1010,3 55 0 0,0
27.01.2021 08:00:00 4,3 1,4 - - 34 18 48 26 NO 1009,5 19 0 0,2
27.01.2021 07:00:00 4,6 2,6 - - 37 20 48 26 NO 1008,9 35 0 0,0
27.01.2021 06:00:00 5,1 1,8 - - 31 17 - - ONO 1008,0 70 0 0,0
27.01.2021 05:00:00 4,9 1,9 - - 28 15 - - NO 1007,5 70 0 0,0
27.01.2021 04:00:00 4,9 2,1 - - 21 11 - - NO 1006,9 65 0 0,0
27.01.2021 03:00:00 5,1 2,1 - - 18 10 - - NO 1006,3 65 0 0,0
27.01.2021 02:00:00 4,9 1,9 - - 16 9 - - ONO 1006,1 75 0 0,0
27.01.2021 01:00:00 4,5 2,0 - - 18 10 - - O 1005,5 60 0 0,0
27.01.2021 00:00:00 3,7 1,9 - - 13 7 - - O 1005,2 29 - 0,0
26.01.2021 23:00:00 3,4 1,4 - - 16 9 - - OZO 1004,9 60 0 0,0
26.01.2021 22:00:00 4,1 1,8 - - 15 8 - - O 1005,1 40 0 0,0
26.01.2021 21:00:00 4,4 2,4 - - 21 11 - - O 1004,8 40 0 0,0
26.01.2021 20:00:00 4,4 2,3 - - 16 9 - - O 1005,0 35 0 0,0
26.01.2021 19:00:00 4,1 1,9 - - 16 9 - - O 1004,9 45 0 0,0
26.01.2021 18:00:00 4,3 2,2 - - 13 7 - - O 1005,4 50 0 0,0
26.01.2021 17:00:00 4,0 1,8 - - 15 8 - - O 1005,5 50 0 0,0
26.01.2021 16:00:00 4,4 2,2 - - 15 8 - - O 1005,5 40 0 0,0
26.01.2021 15:00:00 4,4 1,5 - - 13 7 - - ZO 1006,0 70 0 0,0
26.01.2021 14:00:00 4,6 0,9 - - 16 9 - - ZO 1007,0 75 0 0,0
26.01.2021 13:00:00 4,2 1,3 - - 16 9 - - ZO 1007,6 70 0 0,0
26.01.2021 12:00:00 3,4 0,8 - - 16 9 - - ZO 1008,2 60 0 0,6
26.01.2021 11:00:00 3,6 0,6 - - 21 11 - - ZO 1008,8 70 0 0,0
26.01.2021 10:00:00 2,5 0,2 - - 15 8 - - OZO 1008,7 35 0 0,0
26.01.2021 09:00:00 2,3 0,6 3,0 4,7 18 10 - - OZO 1009,1 50 0 0,0
26.01.2021 08:00:00 2,3 0,6 - - 18 10 - - O 1009,4 30 0 0,0
26.01.2021 07:00:00 1,5 0,3 - - 16 9 - - O 1009,8 28 0 0,0
26.01.2021 06:00:00 0,7 -0,3 - - 11 6 - - O 1010,5 30 0 0,0
26.01.2021 05:00:00 0,8 -0,2 - - 9 5 - - O 1010,7 23 0 0,0
26.01.2021 04:00:00 0,8 -0,2 - - 11 6 - - O 1010,4 26 0 0,0
26.01.2021 03:00:00 -0,2 -1,0 - - 4 2 - - NNO 1010,7 12 0 0,0
26.01.2021 02:00:00 -0,4 -1,1 - - 4 2 - - N 1010,7 60 0 0,0
26.01.2021 01:00:00 -1,1 -2,0 - - 5 3 - - NNW 1010,7 50 0 0,0
26.01.2021 00:00:00 -0,9 -1,8 - - 8 4 - - WNW 1010,5 35 - 0,0
25.01.2021 23:00:00 1,6 0,0 - - 8 4 - - ZO 1010,1 45 0 0,0
25.01.2021 22:00:00 2,2 1,2 - - 13 7 - - ZO 1010,1 45 0 0,0
25.01.2021 21:00:00 0,7 -0,2 - - 8 4 - - WNW 1009,8 25 0 0,0
25.01.2021 20:00:00 1,3 0,6 - - 4 2 - - WZW 1009,6 30 0 0,0
25.01.2021 19:00:00 -0,2 -0,9 - - 9 5 - - WNW 1009,1 13 0 0,0
25.01.2021 18:00:00 0,3 -0,6 - - 5 3 - - WNW 1008,5 13 0 0,0
25.01.2021 17:00:00 1,7 0,5 - - 5 3 - - WNW 1008,1 45 0 0,0
25.01.2021 16:00:00 3,1 1,3 - - 9 5 - - WNW 1007,7 60 24 0,0
25.01.2021 15:00:00 3,7 2,2 - - 5 3 - - NW 1007,2 75 6 0,0
25.01.2021 14:00:00 3,8 2,0 - - 15 8 - - N 1006,9 30 18 0,0
25.01.2021 13:00:00 3,6 2,8 - - 8 4 - - NW 1006,4 75 12 0,0
25.01.2021 12:00:00 2,3 1,3 - - 15 8 - - NW 1006,1 75 18 0,4
25.01.2021 11:00:00 3,2 1,8 - - 22 12 - - N 1005,2 24 48 0,0
25.01.2021 10:00:00 1,7 0,7 - - 13 7 - - WNW 1004,2 50 18 0,0
25.01.2021 09:00:00 2,7 1,7 3,0 4,7 16 9 - - NW 1003,7 65 0 0,0
25.01.2021 08:00:00 2,1 1,1 - - 15 8 - - NW 1002,9 50 0 0,0
25.01.2021 07:00:00 2,7 1,5 - - 16 9 - - NNW 1002,2 17 0 0,2
25.01.2021 06:00:00 2,6 1,4 - - 22 12 - - NW 1001,8 55 0 0,2
25.01.2021 05:00:00 2,7 1,7 - - 31 17 - - NW 1001,4 7 0 0,6
25.01.2021 04:00:00 2,9 1,8 - - 28 15 48 26 NW 1000,9 12 0 0,8
25.01.2021 03:00:00 2,9 1,8 - - 31 17 - - NNW 1000,3 6 0 0,8
25.01.2021 02:00:00 2,4 1,3 - - 22 12 - - NW 999,8 55 0 0,4
25.01.2021 01:00:00 3,2 1,1 - - 26 14 - - NW 999,1 50 0 0,2
25.01.2021 00:00:00 2,2 0,8 - - 15 8 - - NW 998,7 30 - 0,0
24.01.2021 23:00:00 2,4 1,2 - - 15 8 - - NW 998,3 30 0 0,2
24.01.2021 22:00:00 2,3 1,4 - - 21 11 - - WNW 997,9 55 0 0,8
24.01.2021 21:00:00 2,3 1,5 - - 22 12 48 26 NNW 997,5 6 0 1,0
24.01.2021 20:00:00 2,9 1,8 - - 28 15 - - WNW 996,5 28 0 1,4
24.01.2021 19:00:00 2,5 1,3 - - 35 19 52 28 WNW 996,4 5 0 0,6
24.01.2021 18:00:00 2,4 0,9 - - 35 19 55 30 WNW 996,1 35 0 0,6
24.01.2021 17:00:00 2,1 0,8 - - 46 25 57 31 NW 996,1 4,3 0 0,6
24.01.2021 16:00:00 2,1 0,5 - - 28 15 - - W 995,9 5 0 2,6
24.01.2021 15:00:00 2,3 0,7 - - 18 10 - - WNW 995,5 45 0 1,4
24.01.2021 14:00:00 2,8 0,0 - - 24 13 - - WNW 995,5 35 6 0,0
24.01.2021 13:00:00 2,5 -0,1 - - 21 11 - - WZW 995,1 60 36 0,0
24.01.2021 12:00:00 1,8 0,1 - - 21 11 - - WZW 994,8 75 0 0,0
24.01.2021 11:00:00 1,2 -0,7 - - 13 7 - - WZW 994,7 19 42 0,0
24.01.2021 10:00:00 0,7 -0,7 - - 15 8 - - W 994,4 70 18 0,0
24.01.2021 09:00:00 -0,4 -1,7 3,2 4,9 16 9 - - ZW 994,1 75 0 0,0
24.01.2021 08:00:00 -2,3 -3,4 - - 8 4 - - W 993,9 60 0 0,0
24.01.2021 07:00:00 -1,4 -2,3 - - 13 7 - - WZW 993,3 70 0 0,0
24.01.2021 06:00:00 -1,5 -2,2 - - 11 6 - - WZW 992,9 75 0 0,0
24.01.2021 05:00:00 -2,3 -3,4 - - 8 4 - - WZW 992,9 70 0 0,0
24.01.2021 04:00:00 -0,9 -2,3 - - 9 5 - - W 992,8 75 0 0,0
24.01.2021 03:00:00 -1,1 -2,1 - - 9 5 - - W 992,8 65 0 0,0
24.01.2021 02:00:00 -0,4 -1,3 - - 16 9 - - WZW 992,3 70 0 0,0
24.01.2021 01:00:00 -0,3 -1,1 - - 16 9 - - WZW 992,0 70 0 0,0
24.01.2021 00:00:00 -0,2 -1,1 - - 15 8 - - WZW 991,9 60 - 0,0
23.01.2021 23:00:00 -1,0 -1,9 - - 16 9 - - W 991,7 75 0 0,0
23.01.2021 22:00:00 -1,3 -2,2 - - 0 0 - - N 991,4 70 0 0,0
23.01.2021 21:00:00 -0,5 -1,3 - - 0 0 - - N 991,4 60 0 0,0
23.01.2021 20:00:00 -0,3 -0,9 - - 8 4 - - NNW 991,2 29 0 0,0
23.01.2021 19:00:00 0,3 -0,5 - - 16 9 - - WZW 990,6 55 0 0,0
23.01.2021 18:00:00 0,6 -0,2 - - 13 7 - - W 990,5 75 0 0,0
23.01.2021 17:00:00 0,8 0,0 - - 22 12 - - W 990,2 19 0 0,0
23.01.2021 16:00:00 0,8 -0,1 - - 18 10 - - W 990,3 3,5 0 0,0
23.01.2021 15:00:00 1,1 -0,1 - - 18 10 - - WZW 989,8 65 6 0,0
23.01.2021 14:00:00 1,0 -0,4 - - 21 11 - - WZW 989,7 65 36 0,0
23.01.2021 13:00:00 0,8 -0,6 - - 18 10 - - WZW 990,0 16 30 0,0
23.01.2021 12:00:00 1,0 0,0 - - 15 8 - - W 990,1 35 54 0,0
23.01.2021 11:00:00 -0,6 -1,3 - - 16 9 - - ZW 990,0 55 6 0,0
23.01.2021 10:00:00 -1,6 -2,5 - - 13 7 - - ZW 989,6 55 6 0,0
23.01.2021 09:00:00 -1,7 -2,5 3,4 4,9 13 7 - - ZZW 989,8 50 0 0,0
23.01.2021 08:00:00 -2,2 -2,8 - - 5 3 - - ZW 989,6 45 0 0,0
23.01.2021 07:00:00 -1,3 -1,9 - - 11 6 - - ZW 989,3 45 0 0,0
23.01.2021 06:00:00 -1,0 -1,5 - - 15 8 - - WZW 989,4 40 0 0,0
23.01.2021 05:00:00 -0,8 -1,2 - - 16 9 - - WNW 989,7 0,6 0 0,0
23.01.2021 04:00:00 -2,6 -3,2 - - 11 6 - - WZW 989,3 35 0 0,0
23.01.2021 03:00:00 -1,2 -1,6 - - 13 7 - - WZW 989,5 45 0 0,0
23.01.2021 02:00:00 0,2 -0,2 - - 15 8 - - WZW 989,2 55 0 0,0
23.01.2021 01:00:00 -0,2 -0,6 - - 11 6 - - WZW 989,0 26 0 0,0
23.01.2021 00:00:00 -0,2 -0,6 - - 5 3 - - WNW 989,3 5 - 0,0
22.01.2021 23:00:00 0,1 -0,4 - - 4 2 - - Z 988,7 40 0 0,0
22.01.2021 22:00:00 0,5 -0,1 - - 16 9 - - W 988,5 25 0 0,0
22.01.2021 21:00:00 0,9 -0,2 - - 15 8 - - NW 988,4 55 0 0,0
22.01.2021 20:00:00 0,9 -0,6 - - 26 14 - - WNW 987,9 1,7 0 0,0
22.01.2021 19:00:00 0,6 -1,3 - - 16 9 - - W 987,7 40 0 0,0
22.01.2021 18:00:00 1,1 -1,1 - - 16 9 - - NW 987,6 30 0 0,0
22.01.2021 17:00:00 0,8 -0,9 - - 16 9 - - NW 987,4 45 0 0,0
22.01.2021 16:00:00 1,2 -0,9 - - 16 9 48 26 WNW 987,0 60 6 0,2
22.01.2021 15:00:00 2,7 0,3 - - 11 6 - - W 986,7 30 30 0,0
22.01.2021 14:00:00 2,0 0,7 - - 16 9 - - NW 986,6 10 18 0,2
22.01.2021 13:00:00 2,2 0,8 - - 21 11 - - NW 986,5 45 24 0,2
22.01.2021 12:00:00 1,5 0,5 - - 18 10 - - NW 986,5 8 0 0,4
22.01.2021 11:00:00 2,1 0,4 - - 24 13 - - N 986,0 8 36 0,0
22.01.2021 10:00:00 1,0 -0,9 - - 15 8 46 25 WNW 985,2 45 0 0,0
22.01.2021 09:00:00 1,5 -0,6 3,7 5,0 37 20 54 29 N 985,1 15 0 0,0
22.01.2021 08:00:00 1,9 -1,5 - - 22 12 - - NNW 984,2 40 0 0,0
22.01.2021 07:00:00 1,4 -0,6 - - 18 10 65 35 NW 983,7 40 0 0,2
22.01.2021 06:00:00 3,5 0,3 - - 24 13 52 28 NNW 983,2 11 0 0,0
22.01.2021 05:00:00 3,8 0,5 - - 29 16 - - N 982,5 10 0 0,0
22.01.2021 04:00:00 3,3 0,4 - - 29 16 46 25 N 982,0 12 0 0,2
22.01.2021 03:00:00 3,6 1,0 - - 34 18 50 27 N 981,7 4,7 0 0,0
22.01.2021 02:00:00 3,8 1,5 - - 39 21 68 37 N 980,8 9 0 0,2
22.01.2021 01:00:00 3,4 1,3 - - 42 23 67 36 N 980,1 12 0 0,6
22.01.2021 00:00:00 3,5 1,4 - - 42 23 61 33 NNW 979,7 4,9 - 0,4
21.01.2021 23:00:00 3,3 0,6 - - 48 26 63 34 N 979,1 3,1 0 0,0
21.01.2021 22:00:00 3,1 1,5 - - 42 23 59 32 N 978,5 4,3 0 0,2
21.01.2021 21:00:00 2,8 0,6 - - 48 26 70 38 N 978,1 19 0 0,0
21.01.2021 20:00:00 3,5 1,4 - - 41 22 59 32 NNW 977,6 21 0 0,2
21.01.2021 19:00:00 3,3 1,1 - - 54 29 68 37 NNW 977,4 27 0 0,6
21.01.2021 18:00:00 2,6 1,3 - - 55 30 72 39 NNW 977,5 9 0 0,2
21.01.2021 17:00:00 3,5 1,5 - - 48 26 70 38 NNW 976,8 16 0 0,4
21.01.2021 16:00:00 3,8 1,5 - - 50 27 76 41 NNW 976,4 12 0 0,4
21.01.2021 15:00:00 3,1 1,5 - - 54 29 78 42 N 975,8 7 0 0,4
21.01.2021 14:00:00 3,3 1,7 - - 39 21 63 34 N 975,7 8 0 1,0
21.01.2021 13:00:00 4,4 1,9 - - 48 26 70 38 N 975,2 12 6 0,6

tt = temperatuur
td = dauwpunt
tt -20cm = temperatuur -20cm
tt -100cm = temperatuur -100cm
ff = windsnelheid
fx = windstoten
dd = windrichting
ppp = luchtdruk
vv = zicht
sd = Zonneschijnduur
rr = neerslag

Weerstations in de omgeving